ARIANE 5 DEB (SYLDA), 38554

Orbit data source: Space-Track

ARIANE 5 DEB (SYLDA), 38554 is space debris in HEO originally from a launch on Thu, 05 Jul 2012 UTC launched from the French Guiana (FRGUI). Debris objects in space refer to the collection of defunct objects orbiting the Earth. Examples of debris include non-operational satellites, rocket bodies, and fragments generated from explosions, collisions, or faulty payload assembly.

Loading next visibility...
Identifier
38554, 2012-035D
Orbit
HEO
Country
Flag of FRFR
Related business
Manufacturer
EADS/Bremen
Mission
Spacecraft
Bus & Motor
SYLDA 5, Unknown motor
Mass
440 kg wet, 440 kg dry
Launch date (UTC)
2012-07-05 (14 years ago)
Launch vehicle
Unknown
Launch site
French Guiana (FRGUI)
Object type
Payload
Rocket body
Debris
Shape & HBR
Cyl, 2.9 m
Radar Cross Section
28.451 m², Large (>1 m²)

Expand to show TLE details & history
Last TLE update: 2 days ago

TLE from 2 days ago
0 ARIANE 5 DEB (SYLDA)
1 38554U 12035D   26171.30743843  .00002267  00000-0  12170-2 0  9995
2 38554   5.7328 285.2555 5824704  57.2296 346.0151  4.24273011155460
Epoch: 2026-06-20T07:22Z
TLE epoch observation values (Epoch: 2026-06-20T07:22:42.680Z)
Latitude
0.00001°
Longitude
-93.83735°
Altitude
1,716.248 km
Speed
8.588 km/s
True Right ascension
19h 01m 27s
True Declination
0° 00' 00"
Sunlit
Object was in full shadow at epoch
Visualization orbit readout
Latitude
Unknown
Longitude
Unknown
Altitude
Unknown
Speed
Unknown
Apparent Right ascension
Unknown
Apparent Declination
Unknown
Sunlit
N/A
Visualization observer readout
Local Sidereal Time
23:18:54
Azimuth
Unknown
Elevation
Unknown
Doppler factor
Unknown
Orbital elements
Apogee altitude
19,135.702 km
Perigee altitude
353.605 km
Semi-major axis
16,122.791 km
Eccentricity
0.58247
Inclination
5.7328°
RAAN
285.2555°
Arg. of periapsis
57.2296°
True anomaly
302.71102°
Mean anomaly
346.0151°
Eccentric anomaly
328.6545°
Mean motion
1.06019 °/min
Orbital period
339.56 mins
BSTAR
0.001217
Loading maneuver chart data...
Computing Atmospheric mass density...
Loading historical data...
Loading historical data...
Loading historical data...
Loading historical data...
Loading historical data...
Loading historical data...
Loading historical data...

Documentation

Showing up to 5 results
|